Regional Weather Roundup
Issued by NWS Goodland, KS

Home | Current Version | Previous Version | Graphics & Text | Print | Product List | Glossary On
Versions: 1 2 3 4 5 6 7 8 9 10 11 12 13 14 15 16 17 18 19 20 21 22 23 24 25 26 27 28 29 30 31 32 33 34 35 36 37 38 39 40 41 42 43 44 45 46 47 48 49 50
000
ASUS43 KGLD 201759
RWRGLD

GOODLAND FORECAST AREA HOURLY WEATHER ROUNDUP
NATIONAL WEATHER SERVICE GOODLAND KS
1200 PM MDT FRI APR 20 2018

...OFFICIAL OBSERVATIONS...

CITY           SKY/WX    TMP DP  RH WIND       PRES   REMARKS
GOODLAND KS    CLOUDY    43  34  70 S17G29    30.15R
HILL CITY KS   CLOUDY    55  31  39 SE20G30   30.18F
IMPERIAL NEB   LGT RAIN  42  33  70 E14       30.18R
MCCOOK NEB     CLOUDY    48  31  51 SE17G28   30.17F
AKRON CO       CLOUDY    36  35  96 SE23G32   30.04R
BURLINGTON CO  LGT RAIN  38  34  85 SE17G31   30.10F
LIMON CO       PTSUNNY   43  34  70 SE30G47   29.97F
$$

...UNOFFICIAL OBSERVATIONS...

CITY           SKY/WX    TMP DP  RH WIND       PRES   REMARKS
NORTON KS      CLOUDY    52  32  46 SE16G23   30.18
SHARON SPRINGS   N/A     43  36  76 SE17G30     N/A
KIT CARSON CO    N/A     38  33  84 MISG        N/A
YUMA CO        LGT RAIN  36  34  93 SE23      30.08F
$$




USA.gov is the U.S. government's official web portal to all federal, state and local government web resources and services.